Погода в Млаве

Польша     53°07′07″N   20°22′02″E
темп.,
°C
ветер,
м/с
пор.,
м/с
влажн.,
%
обл.,
%
осадки,
мм/ч
давл.,
гПа
погр.,
м
28 сентября, вт
вт2823:00+9вюв5117750 0.0 1023266
02:00+8вюв4108635 0.0 1024231
05:00+7вюв4109296 0.0 1024210
08:00+8вюв4985100 0.0 1024285
11:00+13юв6862100 0.0 1025639
14:00+15юв6652100 0.0 10251011
17:00+14юв4757100 0.0 1025581
20:00+11вюв4107195 0.0 1026216
29 сентября, ср
ср2923:00+9вюв410795 0.0 1026208
02:00+8вюв411835 0.0 1027227
05:00+7вюв4108425 0.0 1026205
08:00+8вюв512775 0.0 1026366
11:00+14юв8115398 0.0 1025920
14:00+16юв810455 0.0 10241326
17:00+15юв8125254 0.0 10221101
20:00+12юв71560100 0.0 1022572
30 сентября, чт
чт3023:00+12юв71461100 0.0 1022536
02:00+12юв61162100 0.0 1022432
05:00+10ююв4985100 1.4 1022327
08:00+11ююз2596100 4.0 1023235
11:00+14з5762100 0.1 1025711
14:00+15зюз4550100 0.1 10261117
17:00+14зюз475096 0.0 1026359
20:00+10юз336053 0.0 102830
1 октября, пт
пт123:00+8юз22680 0.0 102916
02:00+7юз22701 0.0 102910
05:00+6ю2273100 0.0 102917
08:00+8ююв35695 0.0 1029127
11:00+14ю464752 0.0 1028654
14:00+16ю564044 0.0 10261391
17:00+15ююв475458 0.0 1024379
20:00+11юв497656 0.0 1024159
2 октября, сб
сб223:00+10ююв4109190 0.0 1023217
02:00+9ююв4109373 0.0 1021199
05:00+9ююв4129367 0.0 1019221
08:00+11ююв5148191 0.0 1018357
11:00+16ююз8105862 0.0 1017816
14:00+19ююз81146100 0.0 10161275
17:00+17ююз51050100 0.0 1016436
20:00+13ю4866100 0.0 1017146